AirNav   Pilot Hours Calculator
 
 716 users online  

MO21 St Joseph Medical Center Heliport
Kansas City, Missouri, USA

GOING TO KANSAS CITY?


FAA INFORMATION EFFECTIVE 26 MARCH 2020

Location

FAA Identifier: MO21
Lat/Long: 38-56-10.8000N 094-36-18.4600W
38-56.180000N 094-36.307667W
38.9363333,-94.6051278
(estimated)
Elevation: 900 ft. / 274 m (estimated)
Variation: 05E (1985)
Time zone: UTC -5 (UTC -6 during Standard Time)
Zip code: 64114

Heliport Operations

Heliport use: Private use, MEDICAL.
Activation date: 11/1988
Control tower: no
ARTCC: KANSAS CITY CENTER
FSS: COLUMBIA FLIGHT SERVICE STATION
Attendance: CONTINUOUS
Wind indicator: lighted
Segmented circle: no
Lights: SS-SR

Heliport Communications

UNICOM: 123.05
WX ASOS at OJC (8 nm SW): 119.35 (913-780-6969)
WX ASOS at LXT (11 nm E): 124.175 (816-347-9807)
WX ASOS at MKC (11 nm N): PHONE 816-329-2843
WX ASOS at IXD (15 nm SW): 135.325 (913-780-6987)

Nearby radio navigation aids

VOR radial/distance  VOR name  Freq  Var
MCIr159/21.8KANSAS CITY VORTAC113.2505E
ANXr240/24.2NAPOLEON VORTAC114.0007E

 
NDB name  Hdg/Dist  Freq  Var  ID
HERBB025/12.642004EPK .--. -.-

Heliport Services

Runway Information

Helipad H1

Dimensions: 45 x 45 ft. / 14 x 14 m
Surface: asphalt
Runway edge lights: PERI
Latitude: 38-56.180000N
Longitude: 094-36.307667W
Elevation: 900.0 ft.
Traffic pattern: leftleft

Heliport Ownership and Management from official FAA records

Ownership: Privately-owned
Owner: ST JOSEPH HEALTH CENTER
1000 CARONDELET DR
KANSAS CITY, MO 64114
Phone 816-942-4400
Manager: RYAN SLOAN
ST JOSEPH HEALTH CENTER
1000 CARONDELET DR
Phone (816) 943-4713

Additional Remarks

SEE AIRSPACE LTR DATED 3/3/98.
FOR CD CTC KANSAS CITY APCH AT 816-329-2710.

Instrument Procedures

There are no published instrument procedures at MO21.

Some nearby airports with instrument procedures:

KOJC - Johnson County Executive Airport (8 nm SW)
KLXT - Lee's Summit Municipal Airport (11 nm E)
KMKC - Charles B Wheeler Downtown Airport (11 nm N)
KIXD - New Century AirCenter Airport (15 nm SW)
3GV - East Kansas City Airport (19 nm E)
 
Loc | Ops | Rwys | IFR | FBO | Links
Com | Nav | Svcs | Stats | Notes

Kansas City Aviation Department
 
Area around MO21 (St Joseph Medical Center Heliport)
 
Road maps at: MapQuest Bing Google
 
Aerial photo
No photo
 
Sectional chart

 
Airport distance calculator
Flying to St Joseph Medical Center Heliport? Find the distance to fly.

From to MO21

Sunrise and sunset
Times for 28-Mar-2020
 Local
(UTC-5)
 Zulu
(UTC)
Morning civil twilight06:4211:42
Sunrise07:0912:09
Sunset19:3800:38
Evening civil twilight20:0501:05

Current date and time
Zulu (UTC)  29-Mar-2020 00:30:01
Local (UTC-5)  28-Mar-2020 19:30:01
 
METAR
KOJC 
8nm SW 
282353Z 25020G31KT 10SM SCT055 BKN070 14/05 A2958 RMK AO2 PK WND 25036/2307 SLP013 T01440050 10217 20144 53029
KMKC 
11nm N 
282354Z 25019G36KT 10SM FEW070 16/04 A2957 RMK AO2 PK WND 22040/2313 SLP010 T01560039 10239 20156 53035
KLXT 
11nm E 
282353Z AUTO 17/04 A2957 RMK AO2 PK WND 27045/2304 SLP009 T01670039 10233 20167 53027 PWINO $
KIXD 
15nm SW 
282353Z 24021G33KT 10SM FEW055 OVC070 14/04 A2961 RMK AO2 PK WND 24037/2254 SLP020 T01440044 10217 20144 53031
TAF
KMKC 
11nm N 
281720Z 2818/2918 21022G32KT P6SM SCT060 SCT250 FM290200 26017G27KT P6SM BKN025 FM290800 27015G25KT P6SM SKC
KIXD 
15nm SW 
282002Z 2820/2918 23028G38KT P6SM SCT060 SCT250 FM290200 26017G27KT P6SM BKN025 FM290800 27015G25KT P6SM SKC
NOTAMs
Click for the latest NOTAMs
NOTAMs are issued by the DoD/FAA and will open in a separate window not controlled by AirNav.

 

 
 

Would you like to see your business listed on this page?

 If your business provides an interesting product or service to pilots, flight crews, aircraft, or users of the St Joseph Medical Center Heliport, you should consider listing it here.  To start the listing process, click on the button below
 
Add a business
 

Other Pages about St Joseph Medical Center Heliport

Update a link
 
Copyright © AirNav, LLC. All rights reserved. Privacy Policy  Contact